Location: Del Ray Mobile Home Estates
(33.7972°N, 117.8984°W)
Time: 02:12:33
(UTC+00:00)

Daily predictions for brighter satellites

Satellite Brightness Start Highest point End
(mag) Time Altitude Azimuth Time Altitude Azimuth Time Altitude Azimuth
Okean-O 3.5 03:21:10 10° S 03:25:29 53° W 03:29:49 10° NNW
Cosmos 1869 4.2 03:25:00 10° NNE 03:28:24 29° E 03:31:46 10° SE
Cosmos 1825 3.2 03:26:02 10° SSE 03:29:09 25° E 03:32:17 10° NNE
Cosmos 2058 4.4 03:26:24 10° SE 03:29:18 19° E 03:32:13 10° NE
NOSS 3-2 (A) 4.3 03:23:42 10° NNW 03:31:39 78° ENE 03:40:26 10° SE
OBJECT-B 0.9 03:29:14 10° SSE 03:32:21 55° ENE 03:35:29 10° N
USA 306 4.1 03:29:10 10° NNW 03:32:58 30° NE 03:36:43 10° ESE
SAR-Lupe-1 4.0 03:29:55 10° NNE 03:33:27 61° E 03:36:58 10° S
SAR-Lupe-4 3.7 03:30:23 10° NNE 03:33:54 52° ESE 03:37:23 10° S
COSMOS 2406 3.6 03:29:02 10° S 03:34:18 42° ESE 03:39:36 10° NE
Cosmos 405 Rocket 2.7 03:32:16 10° S 03:36:05 86° E 03:40:01 10° N
Cosmos 2034 Rocket 4.2 03:30:31 10° N 03:36:44 78° W 03:43:00 10° S
SL-19 R/B 4.1 03:34:02 10° SSE 03:37:04 51° ENE 03:40:30 10° N
SJ-6B 2.8 03:33:58 10° SSE 03:37:38 57° ENE 03:41:18 10° N
Meteor 1-27 4.3 03:33:57 10° N 03:39:43 70° E 03:45:30 10° SSE
NOSS 3-4 (A) 3.6 03:36:59 10° SW 03:42:44 76° WNW 03:48:46 10° NNE
NOSS 3-4 (C) 3.5 03:37:07 10° SW 03:42:50 77° WNW 03:48:53 10° NNE
OAO 1 Rocket 4.4 03:38:11 10° WSW 03:43:32 73° SSE 03:48:51 10° E
Atlas Centaur 2 2.6 03:42:15 10° SSW 03:45:17 20° SSE 03:47:12 14° ESE
Cosmos 1437 Rocket 3.5 03:42:57 10° NNE 03:46:29 35° ENE 03:49:36 13° SE
USA 32 4.3 03:41:34 10° N 03:46:38 48° E 03:51:39 10° SSE
BREEZE M DEB (TANK) 3.2 03:46:18 10° S 03:48:00 19° ESE 03:51:30 10° ENE
Cosmos 1656 4.3 03:43:17 10° N 03:48:36 41° ENE 03:53:01 14° SE
Cosmos 1408 2.7 03:45:41 10° S 03:49:20 78° W 03:52:58 10° N
Resurs 01 Rocket 2.9 03:46:24 13° ESE 03:49:20 24° ENE 03:52:52 10° NNE
Cosmos 1980 Rocket 4.3 03:49:24 10° NE 03:50:36 11° NE 03:51:47 10° ENE
ATLAS 2AS CENTAUR R/B 3.0 03:43:33 10° SSW 03:51:17 65° ESE 03:59:03 10° NE
CZ-4 R/B 4.4 03:51:18 10° WSW 03:53:17 13° W 03:55:17 10° WNW
RESURS DK-1 3.6 03:53:35 13° SSE 03:56:11 22° ESE 03:59:23 10° NE
Cosmos 1825 Rocket 4.1 03:52:13 10° SSW 03:56:30 60° W 04:00:47 10° N
NOSS 3-2 (C) 4.2 03:50:51 10° NNW 03:58:45 72° ENE 04:06:18 15° SE
Cosmos-2242 3.2 03:55:33 10° NNW 03:59:49 71° W 04:04:01 10° S
OAO 3 Copernicus 4.2 03:55:13 10° WSW 04:00:15 81° SSE 04:05:17 10° E
H-2A R/B 2.4 03:49:27 10° WSW 04:00:19 40° S 04:02:15 20° SE
Cosmos 1633 4.1 04:03:08 17° E 04:03:23 17° E 04:05:50 10° NE
Cosmos 44 Rocket 3.3 04:06:44 10° SSW 04:11:50 77° ESE 04:17:04 10° NNE
ERS-2 2.4 04:12:56 10° N 04:16:33 68° WNW 04:20:09 10° SSW
USA 267 3.6 04:11:09 10° ENE 04:17:16 41° SE 04:23:21 10° SSW
CENTAUR R/B 3.4 04:08:53 10° NNW 04:17:25 78° WSW 04:25:03 15° SSE
Helios 1A Rocket 4.1 04:14:19 10° S 04:18:06 41° W 04:21:56 10° NNW
Sakura Rocket 4.4 04:10:20 10° W 04:18:57 58° S 04:23:06 23° ESE
Meteor 2-2 Rocket 4.4 04:13:43 10° N 04:19:26 56° E 04:23:03 22° SSE
Cosmos 1634 Rocket 4.2 04:15:30 10° N 04:21:45 75° W 04:27:57 10° S
Ariane Rocket 3.0 04:17:44 15° SSE 04:21:58 89° WSW 04:27:04 10° NNW
IRS-1A Rocket 4.3 04:21:09 13° S 04:26:10 78° WSW 04:31:41 10° NNW
Cosmos 1242 Rocket 2.4 04:22:53 10° N 04:26:28 75° E 04:27:49 36° SSE
SEDSat Delta rocket 2.9 04:24:43 10° WSW 04:28:38 52° S 04:29:54 37° ESE
Cosmos 783 Rocket 4.5 04:23:33 10° SSW 04:28:44 85° WNW 04:33:57 10° NNE
OAO 2 Rocket 3.3 04:24:32 10° W 04:29:35 82° N 04:32:23 26° E
CZ-2C R/B 3.9 04:25:39 10° NNE 04:30:02 48° E 04:31:53 30° SSE
Cosmos 2221 2.7 04:27:34 10° N 04:31:46 50° E 04:33:02 37° SE
USA 307 2.8 04:27:57 10° NW 04:32:14 87° SW 04:33:45 39° SE
USA 238 DEB 4.3 04:25:05 10° NW 04:32:22 61° WSW 04:38:15 18° S
USA 238 4.3 04:25:11 10° NW 04:32:28 62° WSW 04:38:20 18° S
IGS 5A 3.5 04:40:41 33° S 04:42:29 78° WSW 04:46:39 10° NNW
Hubble Space Telescope 1.4 04:38:59 10° WSW 04:42:35 37° S 04:42:35 37° S
Terra 3.7 04:43:36 15° ENE 04:43:48 15° ENE 04:46:27 10° NNE
Cosmos 1606 2.9 04:42:34 10° N 04:46:13 49° E 04:46:13 49° E
USA 305 3.3 04:44:46 10° NW 04:48:51 52° SW 04:49:46 42° S
USA 308 3.1 04:44:53 10° NW 04:49:04 59° SW 04:49:57 47° S
Cosmos 1697 Rocket 2.7 04:43:33 10° NNW 04:49:13 69° ENE 04:51:14 40° SE
Cosmos 2082 Rocket 2.3 04:45:17 10° SSW 04:50:53 78° WNW 04:56:33 10° NNE
SPOT 3 Rocket 3.5 04:50:07 34° SSE 04:52:27 88° WSW 04:57:42 10° NNW
Cosmos 1833 Rocket 4.4 04:49:34 10° SW 04:54:36 33° WNW 04:59:40 10° N
Cosmos 2151 3.2 05:00:21 51° ENE 05:00:21 51° ENE 05:04:06 10° NNE
Cosmos 1842 Rocket 4.2 05:08:12 10° NNW 05:12:34 53° W 05:13:42 41° SW
USA 306 4.1 05:09:05 10° WNW 05:12:49 30° SW 05:12:59 30° SW
GP-B 3.8 05:08:53 10° NNE 05:12:19 41° NE 05:12:19 41° NE
Cosmos 1092 Rocket 3.9 05:13:57 50° SSE 05:15:33 69° E 05:21:47 10° NNE
Cosmos 1076 Rocket 4.4 05:16:19 32° SW 05:17:50 46° W 05:22:01 10° N
Meteor 2-3 Rocket 3.6 05:18:41 62° SE 05:19:24 70° E 05:25:02 10° NNE
ERS-1 Rocket 3.2 05:20:52 54° ENE 05:20:52 54° ENE 05:25:44 10° N
Spot 2 Rocket 3.3 05:21:57 74° SSE 05:22:26 85° ENE 05:27:35 10° NNW
Cosmos 2369 3.6 05:18:45 10° NNW 05:24:25 84° WSW 05:25:15 66° S
Resurs 01 Rocket 3.5 05:23:58 20° SW 05:25:40 25° W 05:29:19 10° NW
OAO 1 Rocket 4.5 05:23:56 10° W 05:29:17 77° N 05:29:57 66° ENE
Cosmos 2026 Rocket 3.9 05:33:39 64° SSE 05:34:41 80° E 05:41:02 10° N
Cosmos 1980 Rocket 2.0 05:29:43 10° NNW 05:35:23 86° ENE 05:35:38 81° SE
Cosmos 158 Rocket 4.1 05:37:57 61° WSW 05:38:34 68° WNW 05:43:44 10° NNE
Cosmos 1271 Rocket 4.5 05:36:14 10° N 05:38:17 27° NNE 05:38:17 27° NNE
Cosmos 1627 Rocket 4.4 05:39:18 62° S 05:40:30 88° W 05:46:52 10° N
Cosmos 2322 Rocket 3.9 05:38:51 10° NNE 05:42:46 19° ENE 05:42:46 19° ENE
ARIANE 5 R/B 3.6 05:53:39 45° WNW 05:53:39 45° WNW 05:57:18 10° NNW
Cosmos 2292 Rocket 4.4 05:59:37 68° NNE 05:59:37 68° NNE 06:05:30 10° N
USA 267 4.1 05:54:01 10° NNE 06:00:13 48° NW 06:06:26 10° WSW
SPOT 5 3.8 06:02:35 38° NW 06:02:35 38° NW 06:05:36 10° NNW
ATLAS 3B R/B 2.7 05:59:30 10° NNW 06:06:44 81° ENE 06:07:15 76° ESE
SL-16 R/B 3.1 06:02:53 10° N 06:07:23 39° NE 06:07:23 39° NE
Cosmos 1553 Rocket 4.1 06:12:54 10° N 06:18:05 63° NNE 06:18:05 63° NNE
Terra 3.1 06:22:29 37° NW 06:22:29 37° NW 06:25:42 10° NNW
USA 234 4.4 06:28:20 31° ENE 06:29:57 35° NE 06:35:45 10° NNW
S3M 4.4 06:40:05 10° N 06:45:17 61° N 06:45:17 61° N
Cosmos 2333 Rocket 4.2 06:48:18 10° NNE 06:51:37 19° NE 06:51:37 19° NE
Cosmos 2360 Rocket 3.4 06:52:51 10° N 06:56:30 36° NNE 06:56:30 36° NNE
Cosmos 2322 Rocket 3.7 07:21:40 10° NNW 07:24:34 30° NW 07:24:34 30° NW
COSMOS 2428 4.2 07:44:45 10° N 07:48:18 31° NNE 07:48:18 31° NNE
SL-16 R/B 4.5 07:47:45 10° NW 07:49:14 16° WNW 07:49:14 16° WNW
Cosmos 2219 Rocket 3.6 07:49:44 10° N 07:52:56 33° N 07:52:56 33° N
COSMOS 2455 4.1 08:10:42 35° NNW 08:10:42 35° NNW 08:15:02 10° N
USA 234 4.4 08:15:40 33° WNW 08:15:40 33° WNW 08:19:08 10° NW
Lacrosse 5 4.1 08:37:07 20° NE 08:37:07 20° NE 08:38:43 10° NE
ATLAS 5 CENTAUR R/B 3.5 08:30:15 10° NNW 08:35:44 38° NE 08:35:47 38° NE
Cosmos 2333 Rocket 4.0 08:31:25 10° NNW 08:33:35 23° NW 08:33:35 23° NW
SL-16 R/B 4.1 08:45:15 26° E 08:46:17 27° ENE 08:51:18 10° NNE
Resurs 1-4 Rocket 3.9 08:41:40 10° NNE 08:44:30 26° ENE 08:44:30 26° ENE
Cosmos 2297 Rocket 3.2 09:00:40 41° N 09:00:40 41° N 09:04:24 10° NNE
Cosmos 2227 Rocket 3.1 09:11:21 45° N 09:11:21 45° N 09:15:15 10° NNE
Cosmos 2237 Rocket 3.1 09:04:10 10° NNW 09:08:09 45° N 09:08:09 45° N
ADEOS Rocket 4.1 09:16:09 31° E 09:16:51 33° ENE 09:21:42 10° N
USA 229 DEB 4.2 09:11:53 10° NW 09:17:55 58° WNW 09:17:55 58° WNW
USA 229 4.1 09:11:59 10° NW 09:18:04 59° WNW 09:18:04 59° WNW
CZ-2D R/B 2.9 09:19:42 10° NNE 09:23:40 51° NNE 09:23:40 51° NNE
ADEOS II 3.4 09:21:44 10° NNE 09:25:41 34° ENE 09:25:41 34° ENE
Cosmos 2181 Rocket 4.2 09:22:34 10° N 09:28:07 69° N 09:28:07 69° N
SL-16 R/B 3.6 09:28:33 10° N 09:33:40 34° ENE 09:35:34 27° E
Cosmos 2263 Rocket 3.6 09:36:12 28° E 09:36:12 28° E 09:40:47 10° NE
NOSS 3-1 (A) 4.4 09:32:03 10° NW 09:38:44 51° W 09:38:44 51° W
ATLAS 2A CENTAUR R/B 3.9 09:51:02 57° S 09:51:25 57° SSE 10:16:45 10° E
Helios 1B rocket 4.2 09:49:08 10° N 09:51:15 30° N 09:51:15 30° N
Meteor 2-12 Rocket 4.4 10:00:55 70° WNW 10:00:55 70° WNW 10:06:45 10° N
BREEZE-M DEB (TANK) 4.4 10:03:48 34° NW 10:06:05 87° SW 10:26:00 10° SE
Nadezhda 3 Rocket 4.3 10:02:56 10° N 10:09:14 63° E 10:11:14 43° SE
Cosmos 2327 Rocket 4.3 10:10:32 76° S 10:11:06 89° ENE 10:17:17 10° N
CZ-3B R/B 4.4 10:12:02 40° S 10:12:53 40° S 10:20:00 10° ESE
Cosmos 2251 Rocket 4.3 10:17:02 39° NW 10:17:02 39° NW 10:21:22 10° N
CBERS-1 4.2 10:11:26 10° NNE 10:16:31 64° ESE 10:16:46 63° ESE
Cosmos 2344 3.4 10:14:50 56° SSW 10:16:40 82° ESE 10:24:09 10° NNE
IDEFIX/ARIANE 42P 2.7 10:11:42 10° NNE 10:16:50 62° ESE 10:17:13 60° SE
Cosmos 1378 Rocket 4.3 10:12:41 10° N 10:16:54 47° E 10:16:54 47° E
Lacrosse 5 3.7 10:16:19 20° NW 10:17:01 20° NW 10:20:48 10° N
Cosmos 2082 4.5 10:18:14 39° WNW 10:18:14 39° WNW 10:23:27 10° N
Cosmos 1908 Rocket 4.2 10:19:31 50° E 10:19:31 50° E 10:23:27 10° NNE
Cosmos 1356 Rocket 4.2 10:20:55 49° NE 10:20:55 49° NE 10:24:01 10° NNE
ATLAS 5 CENTAUR R/B 3.9 10:14:50 10° NW 10:17:13 23° WNW 10:17:13 23° WNW
Resurs 1-4 Rocket 3.5 10:21:50 10° NNW 10:25:34 24° WNW 10:25:34 24° WNW
Cosmos 1733 Rocket 4.4 10:27:31 31° NW 10:27:31 31° NW 10:30:22 10° N
SL-16 R/B 3.1 10:30:20 39° W 10:30:20 39° W 10:35:22 10° NNW
DELTA 2 DEB (DPAF) 4.3 10:30:51 62° ESE 10:31:16 67° ENE 10:35:40 10° N
SL-8 R/B 4.3 10:31:08 45° NW 10:31:26 46° NNW 10:36:04 10° NE
Cosmos 1190 Rocket 3.9 10:31:49 68° SSE 10:32:26 80° ESE 10:37:44 10° NNE
USA 215 3.7 10:26:58 10° NE 10:33:18 51° SE 10:35:19 39° S
Centaur AC-112 4.2 10:33:52 36° SSE 10:34:24 36° SSE 10:47:31 10° E
Cosmos 1295 Rocket 4.4 10:33:38 57° WSW 10:34:27 63° W 10:40:32 10° N
Cosmos 1140 Rocket 3.3 10:34:56 72° WSW 10:35:18 76° WNW 10:40:33 10° NNE
Cosmos 2154 Rocket 4.1 10:35:29 50° W 10:36:05 51° W 10:42:07 10° N
ASTRO E2 4.0 10:40:23 31° ESE 10:40:23 31° ESE 10:42:45 10° E
CZ-4C R/B 4.4 10:40:07 29° SE 10:41:42 45° ENE 10:45:42 10° N
Okean 2 3.4 10:41:17 10° N 10:45:11 75° NW 10:45:11 75° NW
Meteor 1-21 4.2 10:40:11 10° N 10:46:00 83° W 10:48:10 41° S
Cosmos 1954 Rocket 4.3 10:44:57 43° SSE 10:46:34 64° ESE 10:51:50 10° NNE
CZ-4B R/B 4.2 10:43:53 10° NNE 10:48:29 43° E 10:50:38 27° SSE
Meteor 1-28 Rocket 4.3 10:51:21 33° NW 10:51:21 33° NW 10:53:39 10° NNW
MSX 3.7 10:45:29 10° NNE 10:51:14 86° WNW 10:53:13 43° SSW
IRS-P3 Rocket 4.5 10:47:05 10° N 10:52:21 80° WNW 10:53:49 49° SSW
ARIANE 5 R/B 2.8 10:48:30 10° NNE 10:53:39 63° ESE 10:56:00 32° S
CZ-2D R/B 4.4 10:53:45 10° NNE 10:57:36 42° E 10:59:15 28° SSE
Cosmos 1782 Rocket 3.4 11:00:41 52° S 11:01:45 87° E 11:06:07 10° N
ADEOS Rocket 3.9 11:03:05 26° W 11:03:05 26° W 11:06:57 10° NW
Cosmos 1805 4.1 11:01:49 28° SSE 11:03:26 45° E 11:07:10 10° NNE
CZ-2D R/B 4.3 11:02:56 10° NW 11:04:25 11° WNW 11:04:59 11° WNW
ADEOS II 3.4 11:01:56 10° NNW 11:05:58 23° WNW 11:06:37 22° WNW
Cosmos 1959 Rocket 4.5 11:02:30 25° S 11:06:15 82° E 11:12:26 10° N
ATLAS CENTAUR R/B 1.5 11:09:58 46° WNW 11:10:12 47° WNW 11:13:57 10° NNE
IUS-17 SRM-1 4.0 11:11:22 34° S 11:11:22 34° S 11:13:41 10° SE
SL-8 Rocket 3.9 11:09:37 30° SSW 11:12:46 70° W 11:18:54 10° N
KORONAS-FOTON 4.3 11:08:59 10° N 11:12:52 61° E 11:15:43 17° SSE
Cosmos 676 Rocket 4.0 11:12:58 36° SW 11:15:06 70° WNW 11:20:27 10° NNE
IRS-1C 4.2 11:10:08 10° N 11:15:24 62° WNW 11:17:43 33° SW
Cosmos 2366 rocket 4.0 11:11:29 24° S 11:15:34 83° W 11:21:57 10° N
SL-16 R/B 3.1 11:12:53 10° NW 11:17:20 27° W 11:17:20 27° W
Delta 142 4.4 11:16:04 32° WSW 11:18:20 47° S 11:23:10 10° ESE
Cosmos 2263 Rocket 3.1 11:17:54 27° W 11:19:46 34° WNW 11:24:54 10° N
Cosmos 1707 3.4 11:16:51 10° NNW 11:20:12 35° W 11:20:12 35° W
PAYLOAD A 4.2 11:21:35 10° NNE 11:27:00 76° ESE 11:31:26 15° S
Spot 1 4.0 11:25:21 24° S 11:27:44 59° WSW 11:31:47 10° NNW
Cosmos 1733 3.1 11:27:50 26° S 11:29:53 90° WNW 11:33:44 10° N
ALOS 3.3 11:25:31 10° NNE 11:29:58 43° E 11:34:23 10° S
GEOS 3 Rocket 4.3 11:25:52 10° SE 11:31:07 60° NE 11:36:22 10° NNW
Cosmos 1766 3.4 11:29:45 18° S 11:32:30 70° E 11:36:23 10° NNE
Cosmos 1741 Rocket 4.5 11:29:58 13° S 11:34:37 59° ESE 11:39:48 10° NNE
SL-08 R/B 3.3 11:31:14 10° S 11:36:09 79° WSW 11:41:08 10° NNW
CZ-4C R/B 3.1 11:28:50 10° NNW 11:36:36 81° WSW 11:45:16 10° SSE
Delta 128 4.2 11:34:57 28° SW 11:36:48 42° S 11:41:29 10° ESE
Meteor 2-20 4.4 11:33:10 10° NNW 11:39:17 71° W 11:45:23 10° S
Cosmos 2218 Rocket 4.3 11:37:15 20° SSW 11:41:29 48° W 11:47:37 10° N
Cosmos 1300 Rocket 3.4 11:38:50 18° SSW 11:42:02 76° W 11:46:23 10° N
Meteor 2-20 Rocket 4.5 11:37:49 10° N 11:43:59 89° E 11:50:09 10° S
Meteor 1-15 Rocket 4.3 11:43:11 11° SSW 11:48:47 73° W 11:54:41 10° N
Cosmos 1484 Rocket 4.0 11:46:46 10° NNE 11:50:32 41° E 11:54:19 10° S
Cosmos 1340 3.1 11:48:17 10° NNW 11:51:48 40° W 11:54:37 14° SSW
Cosmos 1975 Rocket 3.3 11:47:37 10° NNW 11:51:51 48° W 11:56:01 10° SSW
Cosmos 1727 Rocket 4.0 11:46:34 10° N 11:52:50 87° W 11:59:07 10° S
Cosmos 1400 Rocket 3.4 11:51:48 21° SW 11:53:46 35° WNW 11:57:22 10° N
Cosmos 1626 2.1 11:51:59 10° NNW 11:55:38 61° W 11:59:15 10° S
IDEFIX/ARIANE 42P 4.5 11:53:21 10° NW 11:55:50 14° WNW 11:58:01 11° W
